Home   Weather   Kielce   Past weeks

Flag for Poland Past Weather in Kielce, Poland — Yesterday and Last 2 Weeks

Now
38 °F

Rain. Overcast.


Feels Like: 33 °F
Forecast: 36 / 42 °F
Wind: 6 mph from Southwest

Location: Kielce

Current Time: Feb 21, 2017 at 12:26:23 am

Latest Report: Feb 20, 2017 at 11:00 pm


Visibility: 4 mi

Pressure: 29.79 "Hg

Humidity: 87%

Dew Point: 34 °F

Location of KielceLocation

Past Weather in Kielce — Graph

°F

Kielce Temperature Yesterday

Maximum temperature yesterday: 40 °F (at 3:00 pm)
Minimum temperature yesterday: 26 °F (at 7:00 am)
Average temperature yesterday: 35 °F

High & Low Weather Summary for the Past Weeks

 TemperatureHumidityPressure
High49 °F (Feb 16, 2:00 pm)100% (Feb 17, 5:00 pm)30.76 "Hg (Feb 17, 5:00 pm)
Low9 °F (Feb 14, 12:00 am)37% (Feb 10, 3:00 pm)29.79 "Hg (Feb 20, 11:00 pm)
Average25 °F79%30.41 "Hg
* Reported Feb 5 11:00 pm — Feb 20 11:00 pm, Kielce, Weather by CustomWeather, © 2017

Note: Actual official high and low records may vary slightly from our data, if they occured in-between our weather recording intervals... More about our weather records

Advertising

Kielce Weather History for the Previous 24 Hours

Scroll right to see more
 ConditionsComfort  
Time TempWeatherWind HumidityBarometerVisibility
11:00 pm
Mon, Feb 20
38 °FRain. Overcast.6 mph87%29.79 "Hg4 mi
10:00 pm39 °FLight rain. Overcast.8 mph77%29.83 "Hg6 mi
9:00 pm39 °FOvercast.7 mph78%29.85 "Hg6 mi
8:00 pm38 °FOvercast.7 mph79%29.88 "Hg6 mi
7:00 pm38 °FOvercast.7 mph78%29.91 "Hg6 mi
6:00 pm39 °FFog.7 mph77%29.93 "Hg5 mi
5:00 pm40 °FFog.6 mph75%29.94 "Hg5 mi
4:00 pm40 °FFog.6 mph72%29.97 "Hg5 mi
3:00 pm40 °FFog.5 mph72%29.99 "Hg6 mi
2:00 pm39 °FFog.7 mph73%30.02 "Hg5 mi
1:00 pm38 °FFog.6 mph73%30.04 "Hg5 mi
12:00 pm38 °FFog.5 mph72%30.06 "Hg6 mi
11:00 am39 °FFog.5 mph73%30.08 "Hg6 mi
10:00 am38 °FFog.3 mph74%30.09 "Hg5 mi
9:00 am35 °FFog.2 mph82%30.11 "Hg4 mi
8:00 am28 °FFog.1 mph93%30.13 "Hg1 mi
7:00 am26 °FFog.No wind93%30.13 "Hg1 mi
6:00 am28 °FFog.1 mph92%30.13 "Hg2 mi
5:00 am30 °FFog.1 mph90%30.12 "Hg2 mi
4:00 am30 °FFog.2 mph93%30.12 "Hg2 mi
3:00 am29 °FFog.1 mph92%30.14 "Hg2 mi
2:00 am29 °FFog.1 mph92%30.16 "Hg2 mi
1:00 am28 °FFog.1 mph89%30.16 "Hg3 mi
12:00 am30 °FFog.1 mph90%30.16 "Hg3 mi
Weather by CustomWeather, © 2017

See weather overviewHow to use our weather pages